Weather in Ilbenge

Russia / Sakha (Yakutia) Republic     62°49′51″N   124°23′17″E
temp.,
°C
wind,
m/s
gust,
m/s
humid.,
%
clouds,
%
prec.,
mm/h
press.,
hPa
HPBL,
m
21 april, wed
wed2100:00−20nw1110080 0.0 10199
03:00−22wnw11100100 0.0 10209
06:00−22wnw11100100 0.0 10229
09:00−11nne1389100 0.0 1021307
12:00−7nne2276100 0.0 1020801
15:00−6ne2273100 0.0 1020966
18:00−6ne2380100 0.1 1021784
21:00−13nne1196100 0.1 102325
22 april, thu
thu2200:00−17nne119958 0.0 10249
03:00−19n11100100 0.0 102511
06:00−17nw13100100 0.0 102653
09:00−10nnw3689100 0.0 1027403
12:00−7nw4674100 0.1 10271302
15:00−6nw4676100 0.3 10281318
18:00−6wnw377898 0.3 10281312
21:00−14sw229562 0.3 102933
23 april, fri
fri2300:00−12sw3109421 0.0 1028136
03:00−9sw41292100 0.0 1026318
06:00−8sw51292100 0.0 1023359
09:00−5sw51194100 0.5 1021656
12:00−2sw5990100 0.8 10181087
15:00−1wnw4782100 1.9 10161164
18:00−2nw4887100 0.7 1017993
21:00−4nw41195100 0.9 1019643
24 april, sat
sat2400:00−5nw51295100 0.6 1020651
03:00−7wnw51294100 1.4 1022628
06:00−9nw5129499 0.3 1023529
09:00−7nw5991100 0.4 1024566
12:00−4nw5782100 0.1 10251001
15:00−3nw4676100 0.2 10251292
18:00−3wnw3682100 0.1 1025854
21:00−6wsw2495100 0.1 102470
25 april, sun
sun2500:00−5ssw3797100 0.6 1020230
03:00−1w31198100 2.4 1017715
06:00−1wnw51197100 1.8 1016703
09:000wnw4998100 2.3 1015585
12:00+1wnw38100100 0.4 1014515
15:000nw37100100 1.0 1014478
18:000wnw3799100 0.3 1013575
21:00−1wnw389799 0.7 1013465